sat.trackr.live / text

‹ back to catalog

STARLINK-31505

NORAD 59237 · 2024-049G

PAYLOAD ACTIVE UNKNOWN

§ Identity

Operator
Country
US
Launch date
2024-03-16
Launch site
AFETR
Launch vehicle
Mass (kg)
RCS (m²)

Purposes: comms

External: N2YO · Heavens-Above · Gunter

§ Orbital elements

Epoch: 2026-05-25T04:18:53.235648Z

Period
94.27 min
Inclination
43.0083°
Eccentricity
0.0001686
Mean motion
15.27568906 rev/d
Perigee alt
481.9 km
Apogee alt
484.2 km
Semi-major
6,861.2 km
B*
1.0035e-6
RAAN
71.6257°
Arg perigee
282.1081°
Mean anomaly
77.9581°
Rev number
12,410

§ Raw data

STARLINK-315051 59237U 24049G   26145.17978282 -.00000235  00000+0  10035-5 0  99912 59237  43.0083  71.6257 0001686 282.1081  77.9581 15.27568906124101

JSON: /api/v1/satellites/59237 · /tle

For live sub-satellite position, see the globe view (requires WebGL).

§ Visibility from observer

Set your observer location to see the next 7 days of passes ≥ 10°. The values pass through the URL so the page stays shareable.

No JS? Fill the form by hand. The geolocation button needs JavaScript.